This demonstration page uses our WeatherBlox Daily Observations layout. Learn more.

Left ArrowRight Arrow

Hourly Observations for July 21, 2016

Temp ( °F °C ) Dew Point ( °F °C ) Humidity (%) Winds ( mph kmh ) Pressure ( in mb ) Visibility ( mi km ) Precip ( " mm )
12:53 am 00:53 Clear 72 22.2 69 20.6 91 91 N N/A 30.17 1022 10 16 N/A
1:53 am 01:53 Clear 71 21.7 68 20 90 90 N N/A 30.16 1021 7 11 N/A
2:53 am 02:53 Clear 70 21.1 68 20 93 93 N N/A 30.15 1021 7 11 N/A
3:53 am 03:53 Clear with Mist and Fog 68 20 66 18.9 93 93 N N/A 30.15 1021 4 6 N/A
4:53 am 04:53 Clear with Mist and Fog 68 20 66 18.9 93 93 N N/A 30.15 1021 4 6 N/A
5:53 am 05:53 Clear with Mist and Fog 67 19.4 65 18.3 93 93 N N/A 30.16 1022 5 8 N/A
6:32 am 06:32 Sunny with Mist and Fog 67 19.4 65 18.3 93 93 N N/A 30.15 1021 2 3 N/A
6:40 am 06:40 Sunny with Mist and Fog 67 19.4 65 18.3 93 93 N N/A 30.15 1021 3 5 N/A
6:53 am 06:53 Sunny with Mist and Fog 67 19.4 65 18.3 93 93 N N/A 30.18 1022 4 6 N/A
7:53 am 07:53 Sunny 74 23.3 70 21.1 88 88 N N/A 30.18 1022 7 11 N/A
8:53 am 08:53 Sunny 78 25.6 71 21.7 79 79 N N/A 30.18 1022 8 13 N/A
9:53 am 09:53 Sunny 84 28.9 69 20.6 61 61 N N/A 30.18 1022 10 16 N/A
10:53 am 10:53 Sunny 85 29.4 67 19.4 55 55 SW 5 7 30.16 1021 10 16 N/A
11:53 am 11:53 Sunny 89 31.7 65 18.3 45 45 WSW 8 13 30.16 1021 10 16 N/A
12:53 pm 12:53 Sunny 90 32.2 66 18.9 45 45 SW 9 15 30.15 1021 10 16 N/A
1:53 pm 13:53 Mostly Sunny 90 32.2 67 19.4 47 47 W 7 11 30.14 1021 10 16 N/A
2:53 pm 14:53 Mostly Sunny 91 32.8 68 20 47 47 WSW 6 9 30.12 1020 10 16 N/A
3:53 pm 15:53 Mostly Sunny 92 33.3 66 18.9 43 43 WSW 10 17 30.08 1019 10 16 N/A
4:53 pm 16:53 Partly Cloudy 91 32.8 69 20.6 49 49 W 10 17 30.09 1019 10 16 N/A
5:53 pm 17:53 Mostly Sunny 90 32.2 69 20.6 50 50 WNW 8 13 30.09 1019 10 16 N/A
6:53 pm 18:53 Sunny 89 31.7 71 21.7 55 55 NW 8 13 30.09 1019 10 16 N/A
7:53 pm 19:53 Sunny 86 30 72 22.2 63 63 NNW 6 9 30.09 1019 10 16 N/A
8:53 pm 20:53 Sunny 80 26.7 63 17.2 56 56 S 6 9 30.02 1017 10 16 N/A
9:53 pm 21:53 Clear 77 25 65 18.3 66 66 NW 5 7 30.06 1018 10 16 N/A
10:53 pm 22:53 Clear 73 22.8 67 19.4 81 81 N N/A 30.06 1018 10 16 N/A

Powered by AerisWeather